Theta_e
318 319 318 323 320 314 317 318 318 320 319 320 321 323 324 328 333 327 331 331 331 329 331 332 332 330 321 318 317 313 311 310 310 311 313 321 330 332 332 330 324 313 309 307 315 317 318 322 326
318 317 319 323 316 315 315 316 319 318 319 321 323 325 326 332 334 333 332 331 331 331 331 332 331 332 321 318 320 320 318 316 313 310 310 315 327 327 326 322 314 311 307 308 314 317 320 325 321
317 316 321 316 312 314 315 317 316 318 320 320 321 325 328 334 333 331 331 330 330 331 331 332 333 334 326 319 321 323 322 320 318 316 310 310 323 317 313 310 309 309 306 308 313 311 314 319 322
316 321 319 314 317 316 314 316 317 317 319 321 322 326 329 333 332 333 330 331 331 331 330 330 332 332 330 321 320 323 324 322 320 318 316 312 310 309 308 307 308 307 306 308 310 312 318 324 324
317 321 315 317 318 316 316 318 318 316 318 320 323 322 333 334 335 336 335 333 331 331 330 329 330 331 330 328 321 321 325 323 322 320 318 316 314 311 309 307 307 306 306 307 309 313 316 325 324
319 318 316 316 317 315 316 320 318 316 317 319 322 328 334 336 338 336 337 338 334 333 332 329 329 330 330 330 325 322 324 325 323 322 320 320 319 316 312 309 307 305 305 306 310 313 318 321 322
318 315 316 318 315 316 315 319 317 317 317 319 322 323 330 337 338 337 338 337 337 336 334 331 329 329 330 329 329 325 324 325 325 323 322 321 320 317 315 313 310 307 305 306 309 313 318 319 320
320 314 317 316 314 317 316 317 318 318 317 318 319 323 328 334 336 337 338 337 336 336 335 334 330 329 330 329 329 328 326 325 325 325 324 323 321 318 316 315 314 312 310 307 306 308 311 315 316
317 313 313 316 316 317 316 316 317 317 318 318 318 320 321 327 335 338 338 336 333 334 334 335 333 329 330 330 328 329 328 326 326 326 325 324 322 321 319 317 316 315 314 311 308 307 308 310 313
314 311 313 314 314 315 316 317 317 317 317 317 317 319 321 321 331 337 337 336 334 334 333 333 334 330 329 330 329 328 328 328 327 327 326 325 324 323 322 320 319 318 317 315 313 311 310 311 313
315 312 313 315 316 316 315 315 316 315 313 316 317 317 321 323 329 330 333 335 333 335 333 332 331 330 330 330 329 328 328 328 328 327 327 326 325 324 323 323 322 321 319 318 316 315 314 314 314
315 314 314 315 315 315 315 315 315 315 316 317 316 316 318 321 323 324 326 330 334 334 334 332 329 329 330 331 330 329 328 328 328 328 327 327 326 325 324 324 323 322 321 321 319 319 317 316 315
313 313 314 315 315 315 315 315 315 315 316 317 317 316 318 319 319 320 320 324 331 334 334 334 333 329 329 330 330 330 329 329 328 329 328 328 327 326 326 324 323 323 322 321 321 321 320 319 315
314 314 314 314 314 314 314 313 315 315 316 316 316 316 317 318 318 319 320 322 330 333 334 333 333 331 331 330 330 330 328 330 330 329 329 329 328 327 327 325 323 322 321 321 321 321 320 320 319
314 312 312 313 314 314 314 310 311 313 315 315 316 316 317 317 318 319 317 317 320 322 329 331 331 331 332 331 331 331 331 330 332 331 330 329 329 327 327 327 324 323 322 322 321 321 320 320 319
312 309 309 310 312 314 311 307 308 314 314 314 315 315 316 316 317 317 317 317 318 321 323 325 327 330 331 331 331 332 331 331 331 332 331 330 331 328 327 327 327 325 323 323 322 321 321 320 320
309 308 311 311 312 313 312 310 311 315 314 314 314 315 315 315 316 316 316 316 316 318 320 323 327 327 329 330 331 331 331 332 332 332 332 331 330 329 330 329 329 328 325 323 322 323 322 321 320
311 312 311 311 312 312 313 310 309 315 313 314 314 315 316 315 316 316 315 316 316 316 318 320 324 327 330 330 331 332 332 331 333 331 331 330 329 329 330 330 329 330 328 325 323 323 323 322 320
311 312 313 312 313 313 311 310 309 313 313 313 314 314 314 315 315 316 316 316 316 316 316 317 322 326 329 331 332 332 332 331 331 331 331 330 328 328 329 331 331 331 329 327 325 323 322 321 319
312 312 312 311 312 312 311 310 308 309 311 313 313 314 314 314 314 314 316 316 316 316 316 316 317 320 325 329 330 332 331 331 331 330 330 330 329 329 328 329 327 328 327 328 326 325 324 320 319
312 311 311 311 311 309 310 306 307 309 311 313 313 313 314 315 315 315 315 315 316 316 316 316 316 316 317 323 330 331 332 332 331 330 329 332 331 329 329 327 327 326 327 327 327 326 324 322 321
312 311 311 311 310 309 309 307 308 309 308 308 312 311 313 314 315 316 316 316 316 316 316 316 316 316 316 318 322 326 328 329 328 327 328 328 331 331 331 328 327 327 326 326 324 325 326 324 323
310 311 312 312 311 312 310 309 307 307 309 307 309 312 316 316 316 316 315 315 316 317 316 316 316 316 316 317 319 321 324 325 327 327 327 326 328 330 329 327 327 326 325 324 324 323 323 324 322
310 311 309 309 307 308 308 307 305 307 309 311 311 313 313 314 314 314 314 314 314 314 316 316 316 316 316 317 318 318 318 321 324 325 325 324 323 326 329 328 326 326 325 323 323 322 322 324 323
309 307 308 309 309 308 307 307 307 308 308 311 310 312 315 315 316 316 316 316 315 315 314 314 315 316 315 315 316 316 317 320 321 321 320 319 319 320 321 322 325 325 325 322 320 319 322 320 322
309 307 308 308 310 308 307 310 310 309 310 311 311 313 314 314 315 316 316 316 315 315 314 314 314 314 314 315 314 314 314 315 315 315 315 314 314 314 314 314 314 314 314 315 317 316 318 319 320
311 311 307 308 297 307 308 307 308 308 308 309 311 314 314 314 315 315 315 315 315 315 314 315 315 314 313 313 313 313 313 313 312 313 313 313 313 313 313 313 313 313 313 312 312 313 311 316 318
310 309 311 308 307 307 307 308 309 309 310 308 309 313 313 314 314 314 314 314 315 315 315 315 315 315 314 314 313 313 312 312 312 312 312 312 312 312 312 312 312 312 312 312 312 312 312 312 315
310 310 310 309 308 309 308 309 305 309 308 308 310 312 313 313 314 314 314 313 314 313 313 314 314 315 315 314 314 314 314 314 313 314 314 314 313 313 313 312 312 311 311 311 312 312 312 311 311
308 309 309 310 309 307 309 310 307 306 307 310 311 312 313 313 314 314 314 314 314 314 314 314 315 314 314 315 315 314 314 313 313 314 314 313 313 313 313 312 312 311 311 311 311 311 310 309 308
Wind_Speed
8 7 8 4 3 5 1 2 2 3 3 3 6 11 9 5 2 2 18 16 23 26 22 17 16 12 13 11 11 12 13 13 13 13 15 19 15 12 8 6 7 12 14 16 19 19 19 19 18
6 5 6 2 4 4 3 1 4 3 9 13 14 9 5 2 2 10 23 23 26 23 22 20 17 14 11 12 12 13 13 14 13 13 14 16 14 10 7 6 8 12 15 17 18 18 18 18 14
3 4 1 4 4 5 5 4 6 7 10 6 6 7 5 5 5 24 14 26 25 21 19 17 16 14 11 11 12 12 13 13 13 12 12 13 13 8 8 8 10 12 14 16 16 14 15 16 15
3 1 2 4 3 1 7 7 7 9 6 6 14 8 5 4 17 16 21 23 22 20 18 17 15 14 12 11 11 11 12 12 12 11 12 12 10 7 8 9 11 12 14 15 15 15 16 16 15
3 1 4 3 1 1 2 12 15 4 7 10 10 6 6 15 10 13 20 20 21 20 18 16 15 15 12 10 9 10 10 11 10 10 11 10 10 9 9 9 10 12 14 15 15 14 14 16 15
2 2 4 1 2 2 3 14 10 4 8 10 9 12 8 18 15 13 17 18 20 19 18 16 15 14 12 11 9 9 9 9 9 9 9 8 8 8 8 9 10 12 13 14 15 13 14 13 13
6 4 3 2 3 1 4 13 12 9 7 5 15 5 10 20 16 17 18 16 17 17 18 18 17 16 14 13 10 8 8 9 8 7 7 7 6 7 7 8 9 10 12 14 15 14 13 12 11
3 5 2 2 5 4 5 6 11 11 6 10 10 6 7 23 23 22 19 16 14 15 16 17 18 18 17 15 12 11 9 9 8 6 5 5 5 7 7 7 7 8 8 9 11 12 11 10 9
2 4 2 2 5 4 8 4 5 5 10 7 7 6 4 23 28 29 26 23 21 19 17 18 19 20 19 17 16 13 10 10 9 8 7 5 5 6 7 8 8 8 9 9 10 9 10 9 9
4 4 7 1 3 3 8 6 9 5 8 4 7 8 12 23 31 35 33 31 28 26 22 19 21 22 21 20 19 17 15 14 13 11 10 8 8 8 8 8 8 8 8 9 10 9 9 8 8
4 5 4 2 4 7 6 4 8 8 3 11 17 15 19 25 29 31 34 32 30 29 26 23 23 25 24 23 21 20 19 16 16 15 13 11 11 9 9 8 8 7 8 8 7 6 7 8 8
3 2 3 3 3 3 5 3 3 11 6 6 15 16 20 24 27 29 31 33 32 31 29 25 20 24 25 23 23 22 21 21 19 18 17 15 13 8 10 8 7 7 7 7 6 5 4 5 6
3 2 3 3 2 2 2 2 5 10 14 7 8 16 22 23 23 24 26 31 32 33 32 30 25 22 26 24 23 23 23 23 21 22 20 18 16 11 11 11 10 8 7 7 6 4 4 5 6
4 2 2 2 1 1 2 1 1 4 11 16 15 15 22 25 24 24 27 31 36 34 34 32 30 26 26 27 25 24 24 22 24 25 24 21 19 16 14 16 15 15 8 11 10 9 8 7 7
4 3 2 4 3 2 1 3 8 12 6 8 19 16 20 24 26 28 25 30 32 32 34 35 33 31 31 31 29 28 28 27 27 27 27 24 22 22 18 18 20 18 15 14 15 14 14 14 12
3 5 2 3 7 2 2 7 4 4 7 14 14 19 22 24 27 27 27 28 31 34 35 34 34 34 35 35 34 33 33 30 29 28 29 28 29 27 26 24 24 22 20 17 19 19 17 16 17
6 3 4 4 9 3 3 6 6 2 8 9 13 18 19 22 27 30 29 29 29 31 33 34 35 35 34 35 35 37 34 35 34 32 31 31 30 30 31 31 27 28 27 24 23 23 22 21 20
6 4 4 3 4 2 3 8 10 19 14 16 19 21 24 26 28 25 27 28 28 29 32 34 36 36 36 36 36 37 39 39 38 36 34 32 33 33 33 33 32 31 33 32 30 28 26 25 25
5 3 2 2 2 4 7 7 11 22 21 23 28 29 30 31 28 26 24 27 30 31 32 33 36 38 40 43 42 42 43 43 42 41 40 38 36 36 35 37 38 37 37 35 34 33 32 31 31
3 3 3 2 1 3 4 10 11 12 20 28 29 28 31 32 31 28 27 27 28 30 34 35 35 37 40 43 44 45 43 45 44 43 43 41 40 39 37 38 38 41 38 40 41 38 37 38 36
3 5 4 4 2 2 3 8 6 5 7 13 20 21 19 20 19 17 22 25 28 31 31 36 37 37 37 41 45 47 48 48 46 46 45 44 42 40 39 38 39 40 42 40 44 45 44 44 41
5 4 2 3 3 4 3 6 6 6 9 9 23 16 14 13 13 14 13 14 19 25 27 33 38 40 38 38 43 45 47 49 48 46 47 47 44 42 42 41 41 42 41 43 43 48 47 49 48
6 3 2 2 3 2 3 1 7 4 8 10 14 4 11 14 12 8 8 9 9 14 18 23 33 41 42 40 41 42 45 47 47 46 45 46 48 48 48 46 46 45 44 46 46 45 53 50 55
6 5 7 5 3 3 7 6 5 3 5 1 5 9 11 9 8 8 9 11 9 9 13 19 22 35 41 41 41 41 41 43 45 45 44 44 44 46 49 49 48 48 48 48 49 50 50 57 54
5 6 2 3 2 6 1 2 8 8 5 2 8 13 15 17 17 17 17 13 11 10 12 13 16 23 29 34 38 38 39 40 41 42 42 42 42 43 43 45 49 52 52 51 51 52 55 50 61
7 7 5 6 3 4 2 5 5 4 6 7 10 15 21 22 21 23 23 23 19 14 12 11 13 17 20 25 29 32 35 37 38 38 38 39 39 39 39 39 40 43 46 51 52 52 54 55 57
5 4 5 6 2 3 4 6 10 7 2 7 14 22 27 23 18 19 21 22 27 28 28 29 20 16 17 20 23 27 28 30 31 31 31 33 34 34 34 35 37 38 41 44 47 53 52 54 56
5 6 3 2 2 4 4 4 6 5 7 10 14 19 21 19 18 12 13 19 26 26 28 28 28 26 19 19 21 22 23 23 24 25 27 29 30 30 32 33 34 34 35 37 39 47 50 51 56
3 3 2 5 4 5 1 5 6 3 9 8 10 21 21 21 25 25 23 18 25 23 25 25 26 28 25 21 17 14 14 14 17 20 24 26 26 28 30 32 33 34 34 33 36 41 48 51 52
3 6 6 5 5 3 3 6 4 11 11 12 17 24 23 26 28 29 30 24 25 27 27 26 27 27 26 24 20 18 15 18 22 23 25 28 29 31 32 34 36 36 35 34 36 38 43 47 49
Wind_Direction
222 248 281 265 55 64 94 153 208 111 72 77 88 97 120 93 110 191 139 152 154 153 158 154 149 145 131 122 115 111 105 102 101 106 113 121 118 128 130 94 77 100 99 103 105 103 95 90 94
215 271 274 176 89 77 281 201 155 184 142 120 91 108 67 106 127 151 150 156 155 153 154 152 158 150 130 122 119 114 109 106 105 107 115 128 128 140 125 93 92 106 107 113 113 110 105 100 98
212 261 253 97 118 155 173 209 164 146 149 144 109 93 112 124 155 156 154 156 165 166 164 167 169 159 144 127 122 118 114 110 108 110 118 132 136 135 112 102 105 108 113 120 120 119 112 106 101
181 218 66 84 124 236 170 183 172 143 125 127 126 83 97 135 155 166 155 159 166 167 168 172 165 165 156 140 130 128 127 119 114 113 118 125 134 127 112 108 112 113 121 127 128 126 117 110 107
194 82 60 84 207 314 77 168 163 145 151 144 152 156 121 149 154 160 164 164 173 172 172 174 174 173 163 153 143 140 137 126 118 115 113 116 116 118 118 120 118 120 127 134 137 138 133 128 128
117 71 59 94 267 86 165 174 156 127 151 148 121 126 146 174 176 170 174 174 186 181 178 179 180 180 175 171 164 156 148 137 130 120 110 109 111 116 120 122 125 128 133 140 146 144 146 142 134
126 86 177 173 192 244 192 169 147 144 159 181 150 103 152 166 178 175 181 179 179 186 187 189 187 186 187 186 182 176 169 161 149 132 118 105 105 112 125 132 134 138 141 150 154 157 159 154 146
138 98 108 223 183 211 185 141 162 156 189 150 179 169 175 179 173 172 177 176 193 194 195 195 195 194 193 192 196 198 184 179 169 151 140 118 119 120 124 124 128 132 144 158 163 170 174 168 156
176 71 159 220 171 184 177 133 130 159 160 170 187 175 186 175 171 172 176 180 194 204 212 211 206 202 201 201 203 203 197 193 190 183 181 165 153 150 148 142 141 145 151 157 169 179 181 182 171
103 110 204 200 151 195 184 163 152 149 160 190 184 182 164 171 175 180 186 187 193 201 207 217 214 209 207 206 208 208 208 205 205 203 200 193 186 177 166 161 152 149 154 162 171 177 182 183 184
151 170 206 146 98 140 190 185 173 149 231 208 202 189 179 177 184 190 193 198 200 202 207 214 215 211 212 210 211 212 213 214 214 212 213 209 200 192 187 180 173 172 169 171 171 185 192 199 202
126 124 153 164 107 133 165 169 210 202 222 235 229 214 196 191 192 200 201 202 203 208 216 221 223 216 217 218 218 220 221 220 219 219 220 221 210 218 201 196 196 192 186 184 177 202 227 223 213
120 172 130 159 153 158 191 201 256 242 227 205 177 213 210 208 210 211 212 208 207 212 219 226 228 226 220 220 224 224 228 229 227 227 227 225 222 231 210 205 202 205 218 208 206 211 248 257 232
131 133 143 219 199 213 173 203 300 261 232 230 232 225 218 218 219 216 216 212 211 214 221 225 228 231 223 220 225 228 227 232 233 231 233 229 228 232 226 220 212 202 221 245 247 261 262 268 251
120 132 15 229 213 246 268 281 233 265 256 242 227 221 224 226 225 227 227 221 220 222 222 226 229 228 227 227 227 229 227 234 235 235 235 235 233 226 231 232 223 225 212 239 251 253 240 237 233
92 52 84 282 152 209 107 271 290 26 281 239 239 226 224 230 235 239 236 236 230 227 227 228 228 228 228 228 227 230 229 234 238 237 235 237 230 226 230 230 232 232 236 242 245 248 240 235 240
12 181 205 303 192 135 145 258 250 177 339 308 261 252 245 243 240 242 243 245 240 237 233 231 231 232 232 234 231 232 232 234 238 239 236 238 238 235 233 232 235 238 235 236 244 245 238 239 236
190 206 227 222 211 150 191 256 282 284 294 282 274 266 259 253 257 259 253 248 246 243 241 237 236 238 237 238 238 235 235 237 239 241 240 239 243 240 240 242 239 240 239 237 234 235 238 237 231
138 142 181 238 189 158 230 258 264 279 288 278 273 269 264 261 264 262 257 253 250 246 242 242 238 237 237 236 234 235 236 236 237 240 241 242 242 243 241 242 241 239 245 248 242 234 231 225 224
208 181 250 295 87 175 279 269 262 257 264 271 277 279 275 270 268 264 257 255 251 251 248 244 244 242 241 240 242 240 241 242 243 245 244 242 240 243 246 245 247 245 246 244 237 236 236 228 225
166 164 197 206 345 298 336 294 310 293 261 277 280 282 283 277 280 277 268 262 258 255 252 248 248 248 247 244 241 241 242 243 245 245 244 240 241 244 243 249 248 249 250 248 247 244 239 233 234
185 207 187 160 80 241 45 286 305 271 292 286 279 302 296 290 283 291 294 282 268 261 261 258 252 250 250 247 246 248 249 250 252 249 247 246 240 239 241 245 247 250 251 250 249 251 248 244 240
220 149 136 98 114 29 330 68 275 302 277 288 310 359 68 60 57 44 360 352 314 273 267 265 257 252 250 250 251 252 253 257 257 256 254 250 246 244 246 247 247 249 252 254 255 249 250 247 242
143 77 44 53 72 295 220 171 292 226 220 350 19 66 43 34 21 360 336 326 322 305 288 275 268 256 252 251 253 256 259 259 260 259 258 257 255 250 248 248 249 250 251 254 255 256 252 250 252
79 84 351 344 354 230 10 124 243 262 233 310 64 39 51 46 35 24 18 2 330 314 305 290 274 266 259 257 257 259 262 263 265 266 264 262 260 256 254 252 251 252 253 254 255 257 256 254 249
183 154 157 203 208 275 294 240 243 250 252 48 64 74 52 37 35 29 23 21 14 354 337 319 299 286 272 265 263 264 264 265 267 267 266 266 265 263 264 262 260 259 259 258 256 254 256 258 254
193 191 177 101 43 50 232 291 305 326 51 92 76 47 22 16 21 33 28 34 30 27 23 21 360 320 292 276 267 265 265 264 266 269 270 270 268 268 268 266 263 260 259 259 256 254 254 254 257
156 165 85 6 160 258 269 252 221 245 64 51 36 17 18 16 9 20 22 19 7 3 2 3 7 0 335 300 280 270 267 266 268 271 270 269 272 271 270 268 265 263 262 260 259 256 253 253 255
140 167 102 127 154 181 248 259 222 107 105 94 31 18 22 28 13 8 359 347 351 352 354 354 354 351 346 340 310 291 281 279 282 281 280 275 274 273 273 272 271 268 266 265 263 261 257 257 255
155 174 154 139 229 235 161 252 124 120 117 53 20 7 358 350 344 340 338 341 340 340 340 338 337 335 332 325 318 297 290 301 301 293 289 282 278 275 274 273 272 269 267 266 264 263 262 260 255